Location: Unspecified
(0.0000°N, 0.0000°E)
Time: 17:50:17
(UTC+00:00)

STARLINK 1046 - Pass Details

Date: 15 January 2020
Orbit: 548 x 551 km, 53.0° (Epoch: 17 January)

Event Time Altitude Azimuth Distance (km) Brightness Sun altitude
Rises 18:31:08 0° 346° (NNW) 2,698 7.1 -5.1°
Reaches altitude 10° 18:33:38 10° 359° (N) 1,809 6.1 -5.7°
Maximum altitude 18:37:04 25° 56° (NE) 1,115 4.6 -6.5°
Drops below altitude 10° 18:40:30 10° 112° (ESE) 1,818 5.8 -7.3°
Sets 18:43:01 0° 125° (SE) 2,714 6.8 -7.8°
